Location: ??
(34.7252°N, 135.5457°E)
Time: 16:52:56
(UTC+00:00)

Cosmos 2208 Rocket - Pass Details

Date: 24 September 2020
Orbit: 754 x 805 km, 74.0° (Epoch: 27 October)

Event Time Altitude Azimuth Distance (km) Brightness Sun altitude
Exits shadow 18:59:09 42° 202° (SSW) 1,075 4.4 -22.9°
Maximum altitude 19:00:57 85° 287° (WNW) 771 3.9 -22.6°
Drops below altitude 10° 19:06:09 10° 16° (NNE) 2,292 6.8 -21.5°
Sets 19:08:31 0° 17° (NNE) 3,217 7.7 -21.1°
